Regional Weather Roundup
Issued by NWS

Home | Current Version | Previous Version | Text Only | Print | Product List | Glossary On
Versions: 1 2 3 4 5 6 7 8 9 10 11 12 13 14 15 16 17 18 19 20 21 22 23 24 25 26 27 28 29 30 31 32 33 34 35 36 37 38 39 40 41 42 43 44 45 46 47 48 49 50
000
ASUS43 KLSX 072310
RWRMO

WEATHER SUMMARY FOR MISSOURI
NATIONAL WEATHER SERVICE SPRINGFIELD MO
500 PM CST WED DEC 07 2016

NOTE: "FAIR" INDICATES FEW OR NO CLOUDS BELOW 12,000 FEET WITH NO
       SIGNIFICANT WEATHER AND/OR OBSTRUCTIONS TO VISIBILITY.
       CURRENT SKY AND/OR WEATHER CONDITIONS ARE NOT AVAILABLE FOR
       CHILLICOTHE AND FARMINGTON.

MOZ001>031-035>038-043-044-053-054-080000-
...NORTHERN AND WESTERN MISSOURI...

CITY           SKY/WX    TMP DP  RH WIND       PRES   REMARKS
KANSAS CTY INT MOCLDY    26  12  55 NW9       30.34R WCI  17
KANSAS C DTWN  CLOUDY    27  16  63 NW9       30.36R WCI  18
LEE`S SUMMIT   CLOUDY    25  19  78 NW8       30.35R WCI  16
ST JOSEPH      PTCLDY    24  11  57 NW12      30.37R WCI  13
CHILLICOTHE      N/A     27  12  53 NW9       30.34R WCI  18
KIRKSVILLE     MOCLDY    26  13  57 W12       30.28R WCI  16

$$
MOZ066>068-077>081-088>096-101>105-080000-
...SOUTHWEST MISSOURI...

CITY           SKY/WX    TMP DP  RH WIND       PRES   REMARKS
SPRINGFIELD    FLURRIES  33  18  53 N15       30.26R WCI  23
JOPLIN         CLOUDY    30  26  85 N12       30.32R WCI  20
BRANSON        CLOUDY    34  19  55 CALM      30.24R

$$
MOZ032>034-039>042-045>050-055>058-069>072-080000-
...CENTRAL MISSOURI...

CITY           SKY/WX    TMP DP  RH WIND       PRES   REMARKS
COLUMBIA       CLOUDY    30  23  75 W10       30.29R WCI  21
JEFFERSON CITY CLOUDY    31  23  72 W8        30.31R WCI  23
ROLLA          CLOUDY    32  20  61 NW8       30.26R WCI  25
SEDALIA        CLOUDY    28  24  85 NW8       30.33R WCI  20
WHITEMAN AFB   CLOUDY    27  27 100 NW8       30.31S WCI  19
WARRENSBURG    CLOUDY    28  21  74 NW9       30.33S WCI  20
OSAGE BEACH    LGT SNOW  30  24  78 VRB6      30.32R WCI  24

$$
MOZ051-052-059>065-080000-
...EAST CENTRAL MISSOURI...

CITY           SKY/WX    TMP DP  RH WIND       PRES   REMARKS
ST LOUIS INTL  CLOUDY    36  17  46 W6        30.25R
SPIRIT OF STL  CLOUDY    35  18  49 W6        30.26R
ST CHARLES     CLOUDY    35  22  58 W6        30.25R

$$
MOZ072>076-082>087-097>100-106>115-080000-
...SOUTH CENTRAL AND SOUTHEAST MISSOURI...

CITY           SKY/WX    TMP DP  RH WIND       PRES   REMARKS
CAPE GIRARDEAU CLOUDY    38  24  57 N10       30.24R
FARMINGTON     CLOUDY    35  19  52 N7        30.24R WCI  29
POPLAR BLUFF   CLOUDY    40  24  53 NW7       30.23R
WEST PLAINS    CLOUDY    36  18  48 N6        30.24R

$$




USA.gov is the U.S. government's official web portal to all federal, state and local government web resources and services.